User: anonymous   Login
Location: Unspecified
(0.0000°N, 0.0000°E)
Time: 04:40:00
(UTC+01:00)
Language:

ARIANE 44L R/B - Orbit

View from above orbital plane
View from above orbital plane
View from above satellite
View from above satellite

Ground track
Ground track

The orbit data is extracted from the following two-line orbital elements,

1 26901U 01039B   17020.66151287 +.00001584 +00000-0 +58529-3 0  9997
2 26901 007.0991 202.1694 6885682 204.3989 094.5947 02.77826787139508
Epoch (UTC): 20 January 2017 15:52:34
Eccentricity: 0.6885682
inclination: 7.0991°
perigee height: 278 km
apogee height: 29713 km
right ascension of ascending node: 202.1694°
argument of perigee: 204.3989°
revolutions per day: 2.77826787
mean anomaly at epoch: 94.5947°
orbit number at epoch: 13950

The dashed part of the orbit path shows where the satellite is in the earth's shadow,  

DLR